Wind_Speed
17 15 12 13 13 14 16 18 20 19 18 16 14 13 13 12 12 12 13 11 11 11 10 9 9 8 1 2 8 6 3 6 6 11 13 6 9 6 8 6 3 9 6 7 6 8 6
15 13 12 11 13 14 17 18 20 16 15 13 12 12 12 11 11 11 11 11 11 11 9 7 7 4 1 4 6 2 3 6 13 13 10 14 6 8 1 6 4 6 9 7 4 4 4
13 11 12 10 12 14 17 18 16 14 13 12 11 11 10 10 11 10 11 11 10 9 6 6 5 1 3 11 11 3 5 5 8 9 5 12 10 8 5 6 1 9 6 6 5 7 4
13 11 11 10 11 14 16 16 13 12 10 9 8 8 9 9 10 10 10 9 7 6 5 6 2 2 5 11 8 3 9 4 4 8 12 12 13 7 3 3 3 3 4 5 6 9 6
13 11 10 8 11 13 15 13 11 9 8 6 6 6 7 8 9 8 7 7 6 5 6 4 1 2 6 6 4 1 4 9 2 3 4 7 4 2 4 3 2 2 5 6 6 11 6
13 11 8 7 10 12 13 11 9 7 5 3 3 4 6 8 7 9 10 7 4 4 3 2 7 3 8 4 5 2 2 6 3 2 1 2 1 1 5 4 3 4 5 6 7 4 3
13 11 7 7 9 10 11 9 7 5 4 2 2 5 6 8 10 11 9 2 2 1 5 8 8 5 6 7 6 9 9 5 5 3 4 6 5 4 4 3 4 5 4 9 5 6 2
13 11 7 6 7 8 10 8 6 3 1 1 4 6 7 8 9 9 8 3 3 1 4 18 12 8 3 6 5 5 7 1 2 6 6 3 4 4 1 2 3 5 7 6 4 4 3
14 10 7 6 6 7 9 8 4 1 1 3 4 6 8 9 8 9 10 11 13 10 4 3 2 4 1 4 2 4 2 5 7 6 5 6 3 2 4 7 9 9 6 5 3 6 3
14 10 7 5 5 5 7 7 3 1 3 3 3 6 10 10 5 5 6 9 5 7 4 3 2 2 3 4 4 4 4 3 3 3 11 7 3 4 5 8 7 5 6 5 6 5 2
14 10 8 5 3 5 6 6 3 3 4 5 5 6 9 12 8 1 3 3 6 2 4 7 4 5 3 1 8 2 2 5 4 4 7 2 5 7 9 4 4 2 2 3 3 4 3
14 11 7 5 3 4 6 5 3 6 7 6 4 8 9 2 6 5 8 5 1 5 2 3 5 5 5 3 2 5 2 2 3 7 9 5 5 4 4 4 2 5 4 6 4 2 2
15 11 8 5 2 3 6 5 3 7 8 7 6 9 5 2 1 8 7 2 4 4 6 5 4 7 7 2 5 6 5 3 3 3 2 3 4 3 2 4 1 3 6 4 4 4 3
15 11 8 5 2 3 5 5 3 8 9 8 7 6 2 1 3 5 4 5 1 5 4 5 6 4 7 3 4 3 6 4 8 6 2 5 2 5 6 5 2 4 4 4 1 1 4
15 11 8 5 2 2 5 4 4 9 11 10 8 3 2 1 1 3 5 2 4 4 5 6 4 5 4 3 2 4 8 3 5 7 4 4 3 4 6 3 3 5 5 1 5 2 3
15 11 8 5 2 2 4 4 4 10 13 13 6 4 4 2 1 3 4 4 1 5 5 5 5 5 7 8 4 4 4 4 3 5 2 5 4 2 3 1 3 5 2 5 4 2 2
14 11 8 5 2 1 4 5 4 11 15 15 1 2 5 7 3 4 2 5 3 6 8 5 3 2 2 7 6 5 4 5 7 2 7 4 4 3 2 4 4 4 2 4 2 4 4
14 11 8 5 2 1 4 5 5 12 15 13 2 1 7 9 3 3 3 3 1 3 3 2 3 5 3 5 5 5 4 4 8 6 3 3 4 3 3 2 2 0 3 4 4 3 1
14 11 8 5 2 1 3 4 4 15 20 6 2 3 3 2 3 2 5 3 1 5 4 1 5 6 5 4 5 9 5 5 7 5 2 3 2 3 4 4 4 1 4 4 5 3 5
14 11 9 6 3 1 2 3 2 15 21 1 1 2 2 1 2 4 4 3 2 5 3 4 5 3 3 4 4 4 4 2 4 3 3 2 2 5 5 3 1 2 5 4 6 3 3
15 11 9 6 3 2 2 3 1 9 13 6 1 4 7 3 4 4 5 8 6 2 2 2 1 3 4 3 4 5 5 4 2 1 2 3 3 4 4 5 4 3 5 7 5 5 4
16 12 9 6 4 2 2 4 4 5 11 5 1 2 2 4 5 4 5 6 8 8 6 4 3 6 7 4 2 6 8 5 4 5 4 4 1 2 1 6 7 4 7 8 8 2 3
16 12 9 7 4 2 3 4 5 5 11 5 5 6 4 5 3 4 3 0 1 7 3 4 4 11 14 6 9 6 8 5 6 5 3 3 4 3 2 4 5 4 4 5 4 3 3
17 13 10 8 5 3 3 5 5 5 4 2 3 3 4 2 1 4 6 5 8 6 6 7 8 7 4 6 6 8 11 12 9 7 5 4 3 3 2 4 2 5 2 5 6 4 6
17 13 11 8 5 3 4 5 6 5 5 4 4 3 3 1 1 4 3 3 9 13 7 11 8 5 8 6 4 5 5 7 5 6 5 4 4 3 3 1 6 5 3 4 4 3 6
17 14 12 9 6 4 5 6 7 6 6 6 7 4 4 5 4 7 2 9 6 4 4 4 5 10 6 3 4 4 4 5 3 2 7 7 6 4 2 4 6 6 5 5 1 3 4
17 15 12 9 7 5 5 6 7 6 6 5 5 4 2 3 3 5 2 6 6 5 4 4 1 3 5 3 2 2 3 2 5 7 3 3 1 5 3 3 7 8 5 4 5 6 2
17 15 12 10 7 5 5 6 7 6 7 6 6 7 3 3 3 7 7 5 4 5 5 4 4 4 3 3 3 3 2 4 2 7 7 7 7 4 3 3 7 7 4 8 6 4 6
17 15 12 10 8 5 5 6 6 6 6 5 5 9 9 6 3 6 11 12 8 2 5 4 6 4 5 4 1 3 1 0 1 3 4 2 7 6 8 6 7 4 6 4 4 6 4
Wind_Direction
272 267 276 286 293 300 304 304 305 300 296 289 284 275 266 263 264 266 257 248 245 238 240 249 281 310 180 226 248 176 275 245 233 196 221 228 260 207 244 248 87 97 92 73 76 59 57
256 258 274 283 293 302 304 307 306 304 297 292 283 271 261 256 255 256 248 237 232 226 228 256 294 328 232 253 235 173 285 288 231 214 255 230 232 208 307 67 112 130 108 121 136 62 54
246 259 273 282 294 302 307 309 309 307 299 290 276 264 256 248 245 243 235 224 215 213 228 268 291 303 268 245 324 302 271 348 356 344 357 12 355 39 351 71 64 125 119 146 148 161 168
242 252 267 281 295 304 310 312 315 308 302 290 272 255 243 237 233 228 222 205 198 213 240 263 302 134 258 276 287 283 318 301 338 350 3 354 353 356 28 101 25 190 118 135 231 172 200
238 248 261 280 297 307 314 317 318 314 312 300 270 243 228 225 221 207 186 179 192 223 247 282 272 178 264 213 238 250 270 319 169 331 332 321 348 286 21 135 347 277 238 167 199 180 148
235 242 254 279 295 311 318 325 322 320 324 311 247 213 194 191 173 170 166 165 200 246 282 303 266 313 275 246 149 89 247 277 296 182 263 251 325 342 21 71 225 254 266 173 139 194 95
226 237 244 271 294 313 322 332 326 327 349 277 174 175 158 149 168 169 149 147 36 353 226 195 186 226 152 109 155 210 194 231 295 173 228 244 76 137 119 32 342 1 23 107 89 69 68
221 229 231 264 291 315 325 333 329 346 346 146 150 144 146 160 164 168 172 235 246 256 247 248 256 202 3 219 175 114 168 195 218 250 270 3 89 1 199 117 4 351 25 50 98 105 98
214 224 223 249 286 314 331 330 324 331 183 154 136 150 150 154 156 198 215 243 323 336 177 253 183 149 286 322 140 147 75 311 238 249 265 109 141 302 10 50 31 29 81 26 13 339 316
207 213 216 237 277 317 330 329 304 211 196 154 134 170 170 157 168 227 225 281 305 338 97 169 243 146 239 116 50 348 5 232 310 2 118 97 22 0 51 52 38 48 23 1 332 12 263
202 206 208 222 270 313 332 336 290 207 194 163 157 149 156 172 319 255 347 317 298 63 76 204 114 159 107 306 156 204 212 330 283 59 69 79 65 31 62 65 34 137 331 269 292 297 347
196 205 196 206 247 311 332 339 264 201 192 179 162 173 160 219 301 334 295 282 5 49 185 138 133 185 165 197 129 155 165 269 284 68 69 96 78 54 3 320 242 288 289 259 229 157 23
194 195 189 198 224 315 334 332 245 196 189 173 118 142 154 19 323 308 318 28 44 124 159 149 183 154 122 156 140 151 163 59 30 82 139 117 92 141 357 314 147 3 31 360 9 16 230
189 187 183 191 217 314 333 336 238 195 185 168 160 146 114 184 263 316 351 52 329 148 189 165 134 144 119 92 2 121 124 83 13 18 221 137 31 2 353 60 14 312 74 128 77 66 272
182 183 176 183 211 309 341 335 233 191 180 164 158 167 209 294 321 19 66 68 225 345 106 122 149 133 95 83 203 117 70 97 27 1 60 94 103 61 51 350 35 345 44 173 105 350 47
178 176 175 175 205 303 349 328 217 185 177 165 151 185 204 197 217 70 71 240 212 15 358 126 167 188 168 178 192 120 93 11 98 353 358 10 100 7 139 332 353 107 218 46 3 84 313
176 172 179 172 192 343 356 335 198 185 178 172 173 82 193 172 132 54 165 237 93 26 33 14 307 118 201 154 190 149 77 53 12 33 60 20 87 258 43 35 46 15 20 28 85 120 157
176 171 179 173 167 10 7 349 192 184 174 174 233 116 173 166 83 196 227 248 321 84 318 345 355 62 109 72 44 74 101 69 357 336 62 20 128 77 117 76 11 87 86 90 109 296 68
176 172 177 175 151 67 23 11 191 180 173 168 176 144 168 235 143 285 277 60 51 157 236 60 33 40 41 82 77 102 84 31 1 46 119 355 39 67 10 3 321 316 131 127 110 96 179
174 174 176 170 158 118 38 36 180 186 190 71 27 96 0 32 236 200 190 134 70 18 44 33 100 51 67 67 71 120 106 89 52 60 333 53 93 142 173 166 145 349 334 333 145 120 215
177 177 176 169 162 138 44 45 93 192 196 203 237 210 168 211 287 258 182 166 144 127 330 87 78 204 135 149 132 101 95 132 133 147 306 75 107 41 1 340 329 336 335 334 310 248 188
178 176 171 167 159 131 49 36 55 165 172 202 280 31 57 180 201 262 153 203 159 185 140 224 185 216 116 73 51 166 144 174 173 212 168 28 198 78 300 36 17 314 297 275 257 265 29
177 174 167 167 159 121 58 33 50 134 169 206 202 242 108 316 181 100 218 121 238 113 31 274 119 90 76 87 71 40 71 64 95 121 98 86 116 80 255 356 350 9 243 307 312 354 286
176 172 167 164 152 115 66 45 44 107 171 234 9 36 76 292 89 180 156 202 134 111 113 13 77 93 130 92 47 24 28 32 69 35 101 116 87 85 213 14 32 228 342 74 102 38 3
173 171 168 160 147 113 78 54 53 83 101 101 58 72 109 229 255 329 178 100 82 74 71 61 17 109 134 47 63 48 359 20 351 22 42 119 113 74 115 216 300 322 121 109 112 303 70
170 169 167 158 145 114 84 66 61 75 94 104 81 84 103 115 276 294 152 139 128 103 47 34 6 10 72 76 77 143 194 200 166 118 34 46 89 108 97 140 212 229 123 95 76 255 14
168 166 164 157 145 117 91 77 73 79 88 109 73 74 103 104 358 23 108 146 117 102 106 113 107 18 57 79 99 153 251 185 165 169 193 79 350 150 146 220 282 247 160 126 105 233 116
168 165 161 155 145 124 94 77 69 72 79 103 71 59 79 97 359 18 6 51 81 99 135 197 60 336 48 86 136 216 150 239 142 170 171 163 156 196 183 208 273 223 144 155 200 157 136
168 165 159 152 147 130 96 78 70 65 74 77 87 73 72 86 164 75 75 56 63 76 134 148 172 154 167 103 119 124 172 257 123 228 168 166 185 180 179 211 226 205 182 132 130 123 130
Height
802 803 801 802 801 799 798 795 792 789 788 786 785 786 786 786 786 786 786 786 787 788 790 791 791 792 792 792 782 771 770 770 769 769 768 769 774 774 784 773 769 781 781 779 777 779 781
797 799 799 798 797 796 795 791 788 785 784 782 782 783 783 783 783 784 784 784 785 787 789 790 790 791 791 792 770 769 769 768 767 769 766 767 766 761 764 770 776 774 780 784 781 782 781
796 796 797 794 794 793 792 788 784 782 781 779 779 780 780 780 781 782 782 783 785 787 788 789 789 790 789 780 769 768 767 766 765 764 763 758 758 762 763 774 767 773 789 788 788 788 789
793 792 793 791 791 790 789 785 781 780 778 777 777 777 777 778 779 780 781 783 786 787 788 788 788 789 786 770 768 767 766 766 765 764 763 761 760 761 767 765 772 784 791 811 792 787 787
790 789 789 788 788 787 786 782 779 778 776 775 775 775 775 777 778 779 781 784 785 786 787 787 789 789 784 769 768 768 767 767 765 766 766 765 764 770 769 789 803 794 816 807 799 785 789
786 787 785 785 786 784 783 779 777 776 774 773 773 774 774 776 778 780 782 783 785 786 787 788 789 793 775 770 767 768 769 768 768 767 770 770 776 787 794 804 825 810 803 799 805 790 785
781 784 782 782 783 782 781 777 776 774 773 774 773 774 775 776 779 780 782 785 789 789 786 781 777 774 766 766 767 768 769 768 767 770 788 778 799 809 794 786 784 787 794 804 799 788 793
779 780 779 780 780 779 778 775 774 773 774 774 774 774 776 778 779 781 783 783 777 779 787 772 770 770 765 766 770 767 768 774 775 790 781 791 807 787 779 780 784 786 796 809 799 791 796
776 776 776 777 778 777 775 774 772 772 773 774 773 774 776 779 780 782 781 778 776 775 782 772 766 767 766 766 770 771 768 772 780 787 786 800 794 780 783 793 797 802 808 809 809 801 795
771 773 774 775 776 775 774 772 771 772 774 774 774 775 776 778 784 780 780 776 776 774 799 785 774 770 767 764 777 768 768 774 773 788 788 795 784 787 789 799 800 812 800 803 807 816 833
767 770 771 772 773 774 772 770 770 771 773 774 775 776 777 780 779 779 778 776 775 774 838 779 773 765 765 773 776 775 769 770 785 781 785 800 796 799 803 803 797 809 797 803 805 817 819
764 767 768 770 770 771 770 769 770 772 773 774 775 776 777 780 778 777 776 775 774 811 823 782 771 776 779 773 773 773 773 769 769 783 790 794 787 796 801 794 793 794 802 803 806 818 854
762 764 765 767 768 769 768 768 768 770 772 774 774 776 778 778 779 777 775 774 815 827 772 786 782 774 780 782 781 781 785 791 803 810 811 800 802 796 793 805 795 801 816 855 856 866 864
758 760 763 765 766 767 767 766 767 769 771 773 774 776 777 777 777 776 775 792 809 776 776 766 773 775 789 781 785 783 791 805 798 800 810 821 833 809 799 806 813 811 816 866 856 876 864
754 758 761 763 765 766 765 765 767 769 771 773 775 776 777 777 777 777 785 814 800 778 766 775 776 789 791 785 788 792 804 808 807 803 816 820 827 806 804 802 806 815 835 814 849 853 875
752 755 759 762 764 765 764 765 766 767 770 772 774 776 776 776 777 778 796 805 779 767 765 768 790 784 799 795 796 796 802 802 806 800 795 808 829 810 807 803 803 813 810 848 857 869 862
749 753 758 760 762 763 763 764 764 766 769 772 774 780 774 776 777 786 807 792 773 766 771 779 783 781 782 792 790 796 806 806 803 801 802 811 820 824 810 824 827 826 829 830 836 863 880
748 752 757 759 761 762 763 762 763 765 768 773 773 786 774 776 792 792 795 774 775 775 771 773 774 774 783 784 794 799 813 811 805 806 815 813 826 851 830 816 810 814 825 831 875 862 878
747 751 755 758 760 762 763 762 762 764 767 771 774 777 776 777 804 806 780 774 770 778 777 777 782 780 779 791 807 806 814 811 809 813 822 818 829 862 845 832 820 821 822 824 844 866 866
747 751 755 757 760 762 763 762 762 764 766 770 772 788 781 779 776 781 779 781 783 775 778 775 781 779 787 795 792 810 817 813 813 814 819 817 820 841 862 837 829 831 828 825 842 876 866
747 751 754 757 759 761 762 762 762 763 767 772 769 774 772 794 785 781 776 780 787 789 778 777 785 787 792 803 803 813 816 818 816 819 815 821 836 833 832 829 827 828 832 834 836 838 853
747 751 754 757 759 761 762 762 762 762 766 770 770 770 766 774 772 774 781 778 783 782 784 788 789 787 791 803 807 813 811 816 819 818 819 824 850 840 841 835 837 840 837 834 831 827 831
747 751 753 758 760 761 762 762 762 762 765 765 763 761 766 778 776 784 782 772 774 778 781 782 785 802 812 810 807 808 807 809 812 819 826 834 852 864 861 851 855 863 839 828 825 823 826
748 751 755 758 760 762 762 762 761 761 763 763 762 761 776 790 781 778 771 771 780 776 786 791 789 800 806 802 804 812 816 819 817 822 822 842 851 871 879 873 878 832 819 822 828 828 828
748 752 756 758 761 762 762 762 762 761 762 762 762 764 778 801 779 773 769 772 779 786 794 796 795 794 798 806 833 837 851 847 838 828 829 830 857 883 882 874 851 827 821 828 833 839 832
748 753 756 759 761 763 763 763 762 762 762 763 764 765 769 791 789 772 773 777 793 797 803 803 800 799 803 832 849 854 855 840 844 838 840 841 851 869 877 890 889 839 823 820 822 855 834
749 753 757 759 761 763 764 764 764 764 764 764 766 766 768 782 776 774 780 783 783 794 809 808 807 809 810 847 850 859 847 826 845 850 867 862 860 879 887 894 861 828 819 819 852 848 831
749 754 757 760 762 764 764 765 765 766 766 765 768 767 768 779 779 777 777 777 781 791 812 807 818 821 836 840 850 852 856 843 834 831 848 860 869 878 864 864 869 815 817 835 831 826 829
750 755 758 761 763 765 766 766 766 767 767 766 768 770 770 773 783 782 783 783 782 785 792 799 805 807 816 832 844 842 846 841 846 846 821 837 836 847 846 843 818 808 812 814 816 824 830